San Angelo, TX

11:19 AM CST on November 22, 2017 (GMT -0600)
San Angelo Regional-Mathis

Weather History for KSJT - August, 2012

Change the Weather History Date:

Friday, August 24, 2012

  Actual Average Record
Temperature  
Mean Temperature 87 °F 82 °F  
Max Temperature 98 °F 94 °F 105 °F (1924)
Min Temperature 75 °F 70 °F 55 °F (1961)
Degree Days  
Heating Degree Days 0 0  
Month to date heating degree days 0 0  
Since 1 June heating degree days 0 0  
Since 1 July heating degree days 0 0  
Cooling Degree Days 22 17  
Month to date cooling degree days 530 438  
Year to date cooling degree days 2505 1925  
Since 1 June cooling degree days 1800 1465  
Growing Degree Days 36 (Base 50)    
Moisture  
Dew Point 61 °F    
Average Humidity 46    
Maximum Humidity 64    
Minimum Humidity 27    
Precipitation  
Precipitation 0.01 in 0.08 in 2.77 in (1966)
Month to date precipitation 0.56 1.59  
Year to date precipitation 14.17 13.40  
Sea Level Pressure  
Sea Level Pressure 29.80 in    
Wind  
Wind Speed 10 mph (South)    
Max Wind Speed 18 mph    
Max Gust Speed 25 mph    
Visibility 10 miles    
Events      
T = Trace of Precipitation, MM = Missing Value Source: NWS Daily Summary

Daily Weather History Graph

Daily Weather History Graph

Search for Another Location

Airport or City:

Trip Planner

Search our weather history database for the weather conditions in past years. The results will help you decide how hot, cold, wet, or windy it might be!

Date:

Astronomy

Aug. 24, 2012 Rise Set
Actual Time 7:13 AM CDT 8:14 PM CDT
Civil Twilight 6:48 AM CDT 8:39 PM CDT
Nautical Twilight 6:18 AM CDT 9:09 PM CDT
Astronomical Twilight 5:48 AM CDT 9:39 PM CDT
Moon 2:35 PM CDT (8/24) 12:16 AM CDT (8/24)
Length of Visible Light 13h 51m
Length of Day
13h 01m
First Quarter, 52% of the Moon is Illuminated
Aug 24
First Quarter
Aug 31
Full
Sep 8
Last Quarter
Sep 15
New
Sep 22
First Quarter

Hourly Weather History & Observations

Time (CDT) Temp. Heat Index Dew Point Humidity Pressure Visibility Wind Dir Wind Speed Gust Speed Precip Events Conditions
12:51 AM 84.0 °F 84.4 °F 61.0 °F 46% 29.86 in 10.0 mi SSE 11.5 mph - N/A   Clear
1:51 AM 84.0 °F 83.8 °F 59.0 °F 43% 29.85 in 10.0 mi SSE 10.4 mph 20.7 mph N/A   Clear
2:51 AM 82.9 °F 83.2 °F 60.1 °F 46% 29.85 in 10.0 mi SSE 9.2 mph - N/A   Clear
3:51 AM 81.0 °F 81.3 °F 59.0 °F 47% 29.84 in 10.0 mi South 11.5 mph 19.6 mph N/A   Clear
4:51 AM 80.1 °F 80.9 °F 60.1 °F 50% 29.85 in 10.0 mi SSW 6.9 mph - N/A   Scattered Clouds
5:51 AM 78.1 °F - 61.0 °F 56% 29.86 in 10.0 mi SW 3.5 mph - N/A   Clear
6:51 AM 75.9 °F - 61.0 °F 60% 29.86 in 10.0 mi SSE 4.6 mph - N/A   Clear
7:51 AM 75.9 °F - 62.1 °F 62% 29.86 in 10.0 mi ESE 3.5 mph - N/A   Clear
8:51 AM 79.0 °F - 64.9 °F 62% 29.86 in 10.0 mi South 10.4 mph - N/A   Clear
9:51 AM 84.9 °F 87.6 °F 66.9 °F 55% 29.86 in 10.0 mi SSW 12.7 mph - N/A   Clear
10:51 AM 84.9 °F 87.1 °F 66.0 °F 53% 29.85 in 10.0 mi South 11.5 mph 21.9 mph 0.00 in   Mostly Cloudy
11:51 AM 88.0 °F 89.6 °F 64.9 °F 46% 29.84 in 10.0 mi SSW 12.7 mph - 0.00 in   Clear
12:51 PM 93.0 °F 94.6 °F 64.0 °F 38% 29.81 in 10.0 mi South 15.0 mph 20.7 mph N/A   Mostly Cloudy
1:51 PM 91.9 °F 92.9 °F 63.0 °F 38% 29.80 in 10.0 mi South 9.2 mph - N/A   Overcast
2:51 PM 93.0 °F 93.8 °F 62.1 °F 36% 29.78 in 10.0 mi SSW 11.5 mph - N/A   Overcast
3:51 PM 96.1 °F 96.4 °F 61.0 °F 31% 29.74 in 10.0 mi SSW 6.9 mph 18.4 mph N/A   Clear
4:51 PM 97.0 °F 95.7 °F 57.0 °F 26% 29.72 in 10.0 mi SSW 10.4 mph - N/A   Scattered Clouds
5:51 PM 95.0 °F 94.0 °F 57.9 °F 29% 29.71 in 10.0 mi South 16.1 mph 23.0 mph N/A   Mostly Cloudy
6:51 PM 91.0 °F 90.9 °F 61.0 °F 36% 29.72 in 10.0 mi SSE 11.5 mph - 0.01 in   Mostly Cloudy
7:51 PM 91.0 °F 90.2 °F 59.0 °F 34% 29.71 in 10.0 mi SSE 11.5 mph - N/A   Mostly Cloudy
8:51 PM 89.1 °F 88.2 °F 59.0 °F 36% 29.72 in 10.0 mi SE 13.8 mph - N/A   Mostly Cloudy
9:51 PM 87.1 °F 87.0 °F 61.0 °F 41% 29.74 in 10.0 mi SE 10.4 mph - N/A   Scattered Clouds
10:51 PM 86.0 °F 86.1 °F 61.0 °F 43% 29.75 in 10.0 mi SSE 8.1 mph - N/A   Clear
11:51 PM 86.0 °F 85.7 °F 60.1 °F 41% 29.75 in 10.0 mi SSE 10.4 mph - N/A   Clear